Location: Newark
(42.8481°N, 0.4872°E)
Time: 13:59:48
(UTC+00:00)

Vanguard 1 Rocket - Visible Passes

Search period start: 30 October 2020 00:00
Search period end: 09 November 2020 00:00
Orbit: 656 x 4221 km, 34.3° (Epoch: 29 October)

Date Brightness Start Highest point End Pass type
(mag) Time Alt. Az. Time Alt. Az. Time Alt. Az.
05 Nov 11.0 05:08:05 10° S 05:12:49 13° SSE 05:16:37 10° SE visible
07 Nov 10.7 05:07:27 10° SSW 05:15:55 19° SSE 05:21:45 10° ESE visible
08 Nov 11.1 03:57:01 10° S 04:03:54 14° SSE 04:09:12 10° SE visible
